• în România
  • Lista ţărilor
  • Pe 7 zile
  • Temperatura apei
  • Hartă satelitară
  • Meteo pe hartă
  • Widget-uri
  • user-avatar
    Intrare

    Meteo pe oră la Blagoevgrad

    Astăzi, 22 Iunie, Vineri

    Timp Temperatura Precipitaţii Vânt Presiune Umiditate
    00:00 +19°C° 0 mm 1 m/s 720 mmHg 70%
    01:00 +19°C° 0 mm 1 m/s 719 mmHg 70%
    02:00 +18°C° 0 mm 1 m/s 719 mmHg 71%
    03:00 +18°C° 0 mm 1 m/s 719 mmHg 71%
    04:00 +18°C° 0 mm 1 m/s 719 mmHg 71%
    05:00 +18°C° 0 mm 1 m/s 719 mmHg 72%
    06:00 +21°C° 0 mm 1 m/s 719 mmHg 65%
    07:00 +23°C° 0 mm 1 m/s 719 mmHg 59%
    08:00 +25°C° 0 mm 1 m/s 719 mmHg 52%
    09:00 +27°C° 0,1 mm 1 m/s 719 mmHg 49%
    10:00 +28°C° 0,1 mm 1 m/s 719 mmHg 46%
    11:00 +29°C° 0,1 mm 2 m/s 719 mmHg 43%
    12:00 +30°C° 0,4 mm 2 m/s 719 mmHg 43%
    13:00 +30°C° 0,4 mm 2 m/s 718 mmHg 43%
    14:00 +30°C° 0,4 mm 2 m/s 718 mmHg 44%
    15:00 +29°C° 0,5 mm 2 m/s 718 mmHg 46%
    16:00 +29°C° 0,5 mm 2 m/s 717 mmHg 49%
    17:00 +28°C° 0,5 mm 2 m/s 717 mmHg 51%
    18:00 +26°C° 0,5 mm 2 m/s 717 mmHg 59%
    19:00 +24°C° 0,5 mm 2 m/s 718 mmHg 67%
    20:00 +21°C° 0,5 mm 2 m/s 718 mmHg 75%
    21:00 +20°C° 0,4 mm 2 m/s 718 mmHg 80%
    22:00 +19°C° 0,4 mm 2 m/s 719 mmHg 84%
    23:00 +18°C° 0,4 mm 2 m/s 719 mmHg 89%

    Mâine, 23 Iunie, Sâmbătă

    Timp Temperatura Precipitaţii Vânt Presiune Umiditate
    00:00 +17°C° 0,2 mm 2 m/s 719 mmHg 90%
    01:00 +17°C° 0,2 mm 2 m/s 719 mmHg 90%
    02:00 +16°C° 0,2 mm 2 m/s 719 mmHg 90%
    03:00 +15°C° 0 mm 2 m/s 720 mmHg 90%
    04:00 +15°C° 0 mm 2 m/s 720 mmHg 89%
    05:00 +14°C° 0 mm 2 m/s 720 mmHg 89%
    06:00 +14°C° 0 mm 3 m/s 720 mmHg 83%
    07:00 +16°C° 0 mm 3 m/s 721 mmHg 77%
    08:00 +17°C° 0 mm 3 m/s 721 mmHg 71%
    09:00 +18°C° 0 mm 3 m/s 721 mmHg 64%
    10:00 +19°C° 0 mm 3 m/s 721 mmHg 57%
    11:00 +20°C° 0 mm 4 m/s 721 mmHg 49%
    12:00 +20°C° 0,2 mm 3 m/s 721 mmHg 52%
    13:00 +19°C° 0,2 mm 3 m/s 721 mmHg 54%
    14:00 +18°C° 0,2 mm 3 m/s 721 mmHg 57%
    15:00 +19°C° 0 mm 3 m/s 721 mmHg 52%
    16:00 +20°C° 0 mm 3 m/s 721 mmHg 48%
    17:00 +21°C° 0 mm 3 m/s 721 mmHg 43%
    18:00 +20°C° 0 mm 2 m/s 721 mmHg 49%
    19:00 +18°C° 0 mm 2 m/s 721 mmHg 54%
    20:00 +16°C° 0 mm 2 m/s 721 mmHg 60%
    21:00 +15°C° 0 mm 2 m/s 721 mmHg 65%
    22:00 +14°C° 0 mm 2 m/s 721 mmHg 70%
    23:00 +13°C° 0 mm 2 m/s 722 mmHg 76%

    Poimâine, 24 Iunie, Duminică

    Timp Temperatura Precipitaţii Vânt Presiune Umiditate
    00:00 +12°C° 0 mm 2 m/s 722 mmHg 78%
    01:00 +12°C° 0 mm 1 m/s 722 mmHg 81%
    02:00 +11°C° 0 mm 1 m/s 722 mmHg 83%
    03:00 +11°C° 0 mm 1 m/s 722 mmHg 84%
    04:00 +11°C° 0 mm 1 m/s 722 mmHg 86%
    05:00 +10°C° 0 mm 1 m/s 722 mmHg 87%
    06:00 +13°C° 0 mm 1 m/s 722 mmHg 77%
    07:00 +15°C° 0 mm 1 m/s 722 mmHg 67%
    08:00 +18°C° 0 mm 2 m/s 722 mmHg 57%
    09:00 +19°C° 0 mm 2 m/s 722 mmHg 51%
    10:00 +22°C° 0 mm 1 m/s 722 mmHg 46%
    11:00 +24°C° 0 mm 1 m/s 722 mmHg 40%
    12:00 +25°C° 0 mm 1 m/s 722 mmHg 39%
    13:00 +25°C° 0 mm 1 m/s 722 mmHg 37%
    14:00 +26°C° 0 mm 1 m/s 722 mmHg 35%
    15:00 +26°C° 0 mm 1 m/s 721 mmHg 37%
    16:00 +25°C° 0 mm 1 m/s 721 mmHg 38%
    17:00 +25°C° 0 mm 1 m/s 721 mmHg 40%
    18:00 +23°C° 0 mm 1 m/s 721 mmHg 47%
    19:00 +21°C° 0 mm 1 m/s 721 mmHg 55%
    20:00 +19°C° 0 mm 1 m/s 721 mmHg 63%
    21:00 +18°C° 0 mm 1 m/s 721 mmHg 69%
    22:00 +15°C° 0 mm 1 m/s 721 mmHg 75%
    23:00 +14°C° 0 mm 1 m/s 721 mmHg 81%

    25 Iunie, Luni

    Timp Temperatura Precipitaţii Vânt Presiune Umiditate
    00:00 +14°C° 0 mm 1 m/s 721 mmHg 82%
    01:00 +14°C° 0 mm 1 m/s 721 mmHg 83%
    02:00 +13°C° 0 mm 1 m/s 721 mmHg 85%
    03:00 +13°C° 0 mm 1 m/s 721 mmHg 85%
    04:00 +13°C° 0 mm 1 m/s 721 mmHg 85%
    05:00 +13°C° 0 mm 1 m/s 721 mmHg 86%
    06:00 +15°C° 0 mm 1 m/s 721 mmHg 78%
    07:00 +18°C° 0 mm 1 m/s 721 mmHg 71%
    08:00 +20°C° 0 mm 1 m/s 722 mmHg 64%
    09:00 +22°C° 0,1 mm 1 m/s 721 mmHg 60%
    10:00 +23°C° 0,1 mm 1 m/s 721 mmHg 55%
    11:00 +25°C° 0,1 mm 1 m/s 721 mmHg 51%
    12:00 +25°C° 0,3 mm 2 m/s 721 mmHg 51%
    13:00 +25°C° 0,3 mm 2 m/s 721 mmHg 51%
    14:00 +25°C° 0,3 mm 2 m/s 720 mmHg 52%
    15:00 +25°C° 0,2 mm 2 m/s 720 mmHg 54%
    16:00 +24°C° 0,2 mm 2 m/s 720 mmHg 56%
    17:00 +24°C° 0,2 mm 2 m/s 720 mmHg 58%
    18:00 +21°C° 0,1 mm 2 m/s 720 mmHg 63%
    19:00 +20°C° 0,1 mm 2 m/s 720 mmHg 68%
    20:00 +19°C° 0,1 mm 1 m/s 720 mmHg 73%
    21:00 +19°C° 0 mm 1 m/s 720 mmHg 76%
    22:00 +18°C° 0 mm 1 m/s 720 mmHg 78%
    23:00 +16°C° 0 mm 2 m/s 719 mmHg 81%

    26 Iunie, Marţi

    Timp Temperatura Precipitaţii Vânt Presiune Umiditate
    00:00 +16°C° 0 mm 2 m/s 719 mmHg 82%
    01:00 +15°C° 0 mm 2 m/s 719 mmHg 83%
    02:00 +15°C° 0 mm 2 m/s 719 mmHg 84%
    03:00 +15°C° 0 mm 2 m/s 718 mmHg 85%
    04:00 +14°C° 0 mm 2 m/s 718 mmHg 86%
    05:00 +14°C° 0 mm 2 m/s 718 mmHg 87%
    06:00 +15°C° 0,2 mm 2 m/s 718 mmHg 83%
    07:00 +17°C° 0,2 mm 2 m/s 718 mmHg 80%
    08:00 +18°C° 0,2 mm 3 m/s 718 mmHg 76%
    09:00 +19°C° 0,3 mm 3 m/s 718 mmHg 73%
    10:00 +20°C° 0,3 mm 3 m/s 718 mmHg 70%
    11:00 +21°C° 0,3 mm 4 m/s 718 mmHg 67%
    12:00 +21°C° 0,8 mm 4 m/s 718 mmHg 69%
    13:00 +21°C° 0,8 mm 4 m/s 717 mmHg 70%
    14:00 +21°C° 0,8 mm 4 m/s 717 mmHg 71%
    15:00 +21°C° 0,7 mm 4 m/s 717 mmHg 72%
    16:00 +21°C° 0,7 mm 3 m/s 717 mmHg 72%
    17:00 +21°C° 0,7 mm 3 m/s 717 mmHg 73%
    18:00 +20°C° 0,3 mm 3 m/s 717 mmHg 77%
    19:00 +19°C° 0,3 mm 2 m/s 717 mmHg 81%
    20:00 +18°C° 0,3 mm 2 m/s 717 mmHg 85%
    21:00 +17°C° 0,3 mm 2 m/s 717 mmHg 87%
    22:00 +17°C° 0,3 mm 2 m/s 717 mmHg 90%
    23:00 +16°C° 0,3 mm 2 m/s 717 mmHg 93%

    27 Iunie, Miercuri

    Timp Temperatura Precipitaţii Vânt Presiune Umiditate
    00:00 +16°C° 0,2 mm 2 m/s 717 mmHg 93%
    01:00 +16°C° 0,2 mm 2 m/s 717 mmHg 93%
    02:00 +16°C° 0,2 mm 2 m/s 717 mmHg 94%
    03:00 +16°C° 0,2 mm 2 m/s 716 mmHg 94%
    04:00 +15°C° 0,2 mm 2 m/s 716 mmHg 94%
    05:00 +15°C° 0,2 mm 2 m/s 716 mmHg 94%
    06:00 +16°C° 0,2 mm 2 m/s 716 mmHg 90%
    07:00 +17°C° 0,2 mm 2 m/s 717 mmHg 85%
    08:00 +18°C° 0,2 mm 2 m/s 717 mmHg 81%
    09:00 +19°C° 0,3 mm 2 m/s 717 mmHg 77%
    10:00 +20°C° 0,3 mm 2 m/s 717 mmHg 72%
    11:00 +21°C° 0,3 mm 2 m/s 717 mmHg 68%
    12:00 +23°C° 0,3 mm 2 m/s 717 mmHg 66%
    13:00 +22°C° 0,3 mm 3 m/s 717 mmHg 65%
    14:00 +24°C° 0,3 mm 3 m/s 717 mmHg 63%
    15:00 +24°C° 0,4 mm 3 m/s 717 mmHg 64%
    16:00 +22°C° 0,4 mm 3 m/s 717 mmHg 66%
    17:00 +22°C° 0,4 mm 3 m/s 716 mmHg 67%
    18:00 +21°C° 0,7 mm 2 m/s 716 mmHg 73%
    19:00 +20°C° 0,7 mm 2 m/s 717 mmHg 78%
    20:00 +18°C° 0,7 mm 2 m/s 717 mmHg 83%
    21:00 +18°C° 0,7 mm 2 m/s 717 mmHg 86%
    22:00 +17°C° 0,7 mm 2 m/s 717 mmHg 89%
    23:00 +16°C° 0,7 mm 2 m/s 717 mmHg 91%
    Arată mai mult